This is the latest recevied weather packets stored in our database for station/object KK7ISX. If no packets are shown the sender has not sent any weather packets the latest 10 day(s).
| Time | Temp. | Humidity | Pressure | Rain* | Wind** | Luminosity | Snow |
|---|---|---|---|---|---|---|---|
| 1777818879 | 13.33° C | 57% | 1014.6 hPa | 0 mm | - | 57 W/m² | - |
| 1777818575 | 13.33° C | 58% | 1014.6 hPa | 0 mm | - | 51 W/m² | - |
| 1777818273 | 12.78° C | 60% | 1014.7 hPa | 0 mm | - | 50 W/m² | - |
| 1777817963 | 12.78° C | 59% | 1014.8 hPa | 0 mm | - | 48 W/m² | - |
| 1777817661 | 12.78° C | 59% | 1014.7 hPa | 0 mm | - | 47 W/m² | - |
| 1777817358 | 11.67° C | 60% | 1014.6 hPa | 0 mm | - | 45 W/m² | - |
| 1777817055 | 11.67° C | 64% | 1014.7 hPa | 0 mm | - | 44 W/m² | - |
| 1777816750 | 10.56° C | 65% | 1014.7 hPa | 0 mm | - | 42 W/m² | - |
| 1777816449 | 10° C | 66% | 1014.6 hPa | 0 mm | - | 41 W/m² | - |
| 1777816145 | 9.44° C | 69% | 1014.5 hPa | 0 mm | - | 43 W/m² | - |
| 1777815843 | 8.89° C | 70% | 1014.6 hPa | 0 mm | - | 68 W/m² | - |
| 1777815540 | 8.33° C | 72% | 1014.6 hPa | 0 mm | - | 62 W/m² | - |
| 1777815237 | 8.33° C | 73% | 1014.7 hPa | 0 mm | - | 56 W/m² | - |
| 1777814933 | 8.33° C | 73% | 1014.5 hPa | 0 mm | - | 50 W/m² | - |
| 1777814630 | 8.89° C | 72% | 1014.5 hPa | 0 mm | - | 41 W/m² | - |
| 1777814327 | 8.33° C | 73% | 1014.6 hPa | 0 mm | - | 35 W/m² | - |
| 1777814023 | 7.78° C | 74% | 1014.5 hPa | 0 mm | - | 30 W/m² | - |
| 1777813721 | 7.22° C | 77% | 1014.5 hPa | 0 mm | - | 25 W/m² | - |
| 1777813418 | 6.67° C | 79% | 1014.4 hPa | 0 mm | - | 21 W/m² | - |
| 1777813115 | 6.67° C | 81% | 1014.3 hPa | 0 mm | - | 17 W/m² | - |
| 1777812813 | 6.67° C | 79% | 1014.2 hPa | 0 mm | - | 13 W/m² | - |
| 1777812510 | 6.67° C | 79% | 1014.1 hPa | 0 mm | - | 10 W/m² | - |
| 1777812208 | 6.67° C | 80% | 1014.2 hPa | 0 mm | - | 7 W/m² | - |
| 1777811905 | 6.67° C | 80% | 1014.1 hPa | 0 mm | - | 4 W/m² | - |
| 1777811604 | 6.67° C | 80% | 1014.1 hPa | 0 mm | - | 3 W/m² | - |
* Rain latest hour (hover to see other rain measurements)
** Current wind speed in m/s (hover to see current wind gust speed)